TimeWEST,TemperatureF,Dew PointF,Humidity,Sea Level PressureIn,VisibilityMPH,Wind Direction,Wind SpeedMPH,Gust SpeedMPH,PrecipitationIn,Events,Conditions,WindDirDegrees,DateUTC
12:00 AM,57.2,46.4,67,29.95,6.2,North,11.5,-,N/A,,Scattered Clouds,10,2013-05-16 23:00:00
12:30 AM,57.2,46.4,67,29.95,6.2,North,5.8,-,N/A,,Scattered Clouds,10,2013-05-16 23:30:00
1:00 AM,56,45,58,29.94,6,North,6.9,,,,Partly Cloudy,10,2013-05-17 00:00:00
1:00 AM,55.4,46.4,72,29.95,6.2,NNE,8.1,-,N/A,,Scattered Clouds,20,2013-05-17 00:00:00
1:30 AM,55.4,46.4,72,29.95,6.2,Variable,2.3,-,N/A,,Scattered Clouds,0,2013-05-17 00:30:00
2:00 AM,55.4,44.6,67,29.92,6.2,Calm,Calm,-,N/A,,Scattered Clouds,0,2013-05-17 01:00:00
2:30 AM,55.4,46.4,72,29.92,6.2,Calm,Calm,-,N/A,,Scattered Clouds,0,2013-05-17 01:30:00
3:00 AM,55.4,46.4,72,29.92,6.2,Calm,Calm,-,N/A,,Scattered Clouds,0,2013-05-17 02:00:00
3:30 AM,55.4,46.4,72,29.92,6.2,Calm,Calm,-,N/A,,Scattered Clouds,0,2013-05-17 02:30:00
4:00 AM,54,48,74,29.91,6,Calm,Calm,,,,Partly Cloudy,,2013-05-17 03:00:00
4:00 AM,53.6,48.2,82,29.92,6.2,Calm,Calm,-,N/A,,Scattered Clouds,0,2013-05-17 03:00:00
4:30 AM,53.6,48.2,82,29.92,6.2,Calm,Calm,-,N/A,,Scattered Clouds,0,2013-05-17 03:30:00
5:00 AM,53.6,48.2,82,29.92,6.2,Calm,Calm,-,N/A,,Scattered Clouds,0,2013-05-17 04:00:00
5:30 AM,55.4,46.4,72,29.92,6.2,Calm,Calm,-,N/A,,Mostly Cloudy,0,2013-05-17 04:30:00
6:00 AM,55.4,46.4,72,29.92,6.2,Calm,Calm,-,N/A,,Mostly Cloudy,0,2013-05-17 05:00:00
6:30 AM,55.4,48.2,77,29.92,6.2,Calm,Calm,-,N/A,,Mostly Cloudy,0,2013-05-17 05:30:00
7:00 AM,55,48,70,29.91,6,Calm,Calm,,,,Mostly Cloudy,,2013-05-17 06:00:00
7:00 AM,55.4,48.2,77,29.92,6.2,Calm,Calm,-,N/A,,Mostly Cloudy,0,2013-05-17 06:00:00
7:30 AM,55.4,48.2,77,29.92,6.2,Calm,Calm,-,N/A,,Mostly Cloudy,0,2013-05-17 06:30:00
8:00 AM,55.4,48.2,77,29.92,6.2,Calm,Calm,-,N/A,,Mostly Cloudy,0,2013-05-17 07:00:00
8:30 AM,55.4,48.2,77,29.92,6.2,Calm,Calm,-,N/A,,Mostly Cloudy,0,2013-05-17 07:30:00
9:00 AM,57.2,48.2,72,29.95,6.2,Calm,Calm,-,N/A,,Mostly Cloudy,0,2013-05-17 08:00:00
9:30 AM,57.2,48.2,72,29.95,6.2,Calm,Calm,-,N/A,,Mostly Cloudy,0,2013-05-17 08:30:00
10:00 AM,58,47,56,29.94,6,Calm,Calm,,,,Overcast,,2013-05-17 09:00:00
10:00 AM,57.2,46.4,67,29.95,6.2,Calm,Calm,-,N/A,,Mostly Cloudy,0,2013-05-17 09:00:00
10:30 AM,59.0,46.4,63,29.95,6.2,Calm,Calm,-,N/A,,Mostly Cloudy,0,2013-05-17 09:30:00
11:00 AM,60.8,46.4,59,29.95,6.2,Variable,2.3,-,N/A,,Scattered Clouds,0,2013-05-17 10:00:00
11:30 AM,62.6,46.4,55,29.95,6.2,Calm,Calm,-,N/A,,Scattered Clouds,0,2013-05-17 10:30:00
12:00 PM,62.6,44.6,52,29.95,6.2,Calm,Calm,-,N/A,,Scattered Clouds,0,2013-05-17 11:00:00
12:30 PM,62.6,46.4,55,29.95,6.2,Calm,Calm,-,N/A,,Scattered Clouds,0,2013-05-17 11:30:00
1:00 PM,64,45,38,29.90,6,Calm,Calm,,,,Mostly Cloudy,,2013-05-17 12:00:00
1:00 PM,64.4,44.6,49,29.92,6.2,Calm,Calm,-,N/A,,Scattered Clouds,0,2013-05-17 12:00:00
1:30 PM,66.2,44.6,46,29.92,6.2,Variable,2.3,-,N/A,,Scattered Clouds,0,2013-05-17 12:30:00
2:00 PM,68.0,44.6,43,29.92,6.2,NW,6.9,-,N/A,,Scattered Clouds,320,2013-05-17 13:00:00
2:30 PM,68.0,44.6,43,29.92,6.2,West,6.9,-,N/A,,Mostly Cloudy,270,2013-05-17 13:30:00
3:00 PM,68.0,46.4,46,29.92,6.2,West,6.9,-,N/A,,Mostly Cloudy,270,2013-05-17 14:00:00
3:30 PM,68.0,44.6,43,29.92,6.2,WSW,8.1,-,N/A,,Mostly Cloudy,250,2013-05-17 14:30:00
4:00 PM,70,45,29,29.85,6,WNW,6.9,,,,Mostly Cloudy,290,2013-05-17 15:00:00
4:00 PM,69.8,44.6,40,29.89,6.2,WNW,6.9,-,N/A,,Mostly Cloudy,300,2013-05-17 15:00:00
4:30 PM,69.8,44.6,40,29.89,6.2,WSW,6.9,-,N/A,,Mostly Cloudy,240,2013-05-17 15:30:00
5:00 PM,71.6,42.8,35,29.89,6.2,WSW,9.2,-,N/A,,Mostly Cloudy,250,2013-05-17 16:00:00
5:30 PM,71.6,42.8,35,29.89,6.2,Variable,2.3,-,N/A,,Mostly Cloudy,0,2013-05-17 16:30:00
6:00 PM,71.6,42.8,35,29.89,6.2,Variable,5.8,-,N/A,,Mostly Cloudy,0,2013-05-17 17:00:00
6:30 PM,71.6,42.8,35,29.89,6.2,WSW,9.2,-,N/A,,Mostly Cloudy,250,2013-05-17 17:30:00
7:00 PM,71,47,30,29.85,6,WNW,12.7,,,,Mostly Cloudy,300,2013-05-17 18:00:00
7:00 PM,71.6,46.4,41,29.89,6.2,WNW,12.7,-,N/A,,Mostly Cloudy,300,2013-05-17 18:00:00
7:30 PM,69.8,46.4,43,29.89,6.2,WNW,12.7,-,N/A,,Mostly Cloudy,290,2013-05-17 18:30:00
8:00 PM,68.0,48.2,49,29.92,6.2,WNW,15.0,-,N/A,,Mostly Cloudy,290,2013-05-17 19:00:00
8:30 PM,66.2,50.0,56,29.92,6.2,WNW,16.1,-,N/A,,Scattered Clouds,300,2013-05-17 19:30:00
9:00 PM,64.4,50.0,59,29.95,6.2,WNW,16.1,-,N/A,,Scattered Clouds,290,2013-05-17 20:00:00
9:30 PM,62.6,50.0,63,29.95,6.2,WNW,17.3,-,N/A,,Scattered Clouds,290,2013-05-17 20:30:00
10:00 PM,61,50,57,29.96,6,WNW,15.0,,,,Partly Cloudy,290,2013-05-17 21:00:00
10:00 PM,60.8,50.0,68,29.98,6.2,WNW,13.8,-,N/A,,Scattered Clouds,300,2013-05-17 21:00:00
10:30 PM,60.8,50.0,68,30.01,6.2,WNW,11.5,-,N/A,,Scattered Clouds,290,2013-05-17 21:30:00
11:00 PM,60.8,50.0,68,30.01,6.2,West,12.7,-,N/A,,Scattered Clouds,280,2013-05-17 22:00:00
11:30 PM,60.8,50.0,68,30.01,6.2,WNW,13.8,-,N/A,,Scattered Clouds,290,2013-05-17 22:30:00